sat.trackr.live / text

‹ back to catalog

STARLINK-11698 [DTC]

NORAD 64325 · 2025-124J

PAYLOAD ACTIVE UNKNOWN

§ Identity

Operator
Country
US
Launch date
2025-06-10
Launch site
AFETR
Launch vehicle
Mass (kg)
RCS (m²)

Purposes: comms

External: N2YO · Heavens-Above · Gunter

§ Orbital elements

Epoch: 2026-09-20T08:47:53.013984Z

Period
91.67 min
Inclination
42.9991°
Eccentricity
0.0000653
Mean motion
15.70846089 rev/d
Perigee alt
356.0 km
Apogee alt
356.9 km
Semi-major
6,734.6 km
B*
1.0254e-3
RAAN
295.6193°
Arg perigee
208.4791°
Mean anomaly
151.6041°
Rev number
7,345

§ Raw data

STARLINK-11698 [DTC]1 64325U 25124J   26263.36658581  .00133281  00000+0  10254-2 0  99962 64325  42.9991 295.6193 0000653 208.4791 151.6041 15.70846089 73451

JSON: /api/v1/satellites/64325 · /tle

For live sub-satellite position, see the globe view (requires WebGL).

§ Visibility from observer

Set your observer location to see the next 7 days of passes ≥ 10°. The values pass through the URL so the page stays shareable.

No JS? Fill the form by hand. The geolocation button needs JavaScript.